Flag for Kuwait Weather past 2 weeks in Kuwait City, Kuwait

Now
84 °F

Sunny.


Feels Like: 81 °F
Forecast: 68 / 85 °F
Wind: 23 mph from North

Location: Kuwait International Airport

Current Time: Apr 25, 2015 at 4:12:36 PM

Latest Report: Apr 25, 2015 at 3:00 PM


Visibility: 10 mi

Pressure: 30.04 "Hg

Humidity: 11%

Dew point: 25 °F

Location of Kuwait CityLocation

Historic Weather in Kuwait City — Graph

°F

Kuwait City temperature yesterday

Maximum temperature yesterday: 86 °F (at 12:00 PM)
Minimum temperature yesterday: 73 °F (at 4:00 AM)
Average temperature yesterday: 80 °F

Past Weeks' High & Low Weather Summary

 TemperatureHumidityPressure
High102 °F (Apr 22, 1:00 PM)61% (Apr 10, 10:00 PM)30.12 "Hg (Apr 10, 10:00 PM)
Low52 °F (Apr 14, 5:00 AM)6% (Apr 21, 11:00 AM)29.68 "Hg (Apr 10, 3:00 PM)
Average81 °F24%29.91 "Hg
* Reported Apr 10 3:00 PM — Apr 25 3:00 PM, Kuwait City, Weather by CustomWeather, © 2015

Note: Actual official high and low records may vary slightly from our data, if they occured in-between our weather recording intervals... More about our weather records

Advertising

Kuwait City weather history for previous 24 hours

 ConditionsComfort  
Time TempWeatherWind HumidityBarometerVisibility
3:00 PM
Sat, Apr 25
84 °FSunny.23 mph11%30.04 "Hg10 mi
2:00 PM82 °FSunny.23 mph11%30.07 "Hg10 mi
1:00 PM82 °FSunny.25 mph11%30.07 "Hg10 mi
12:00 PM79 °FSunny.114 mph13%30.07 "Hg10 mi
11:00 AM77 °FSunny.26 mph18%30.09 "Hg10 mi
10:00 AM75 °FSunny.26 mph19%30.09 "Hg10 mi
9:00 AM72 °FSunny.23 mph23%30.09 "Hg10 mi
8:00 AM68 °FSunny.25 mph28%30.09 "Hg10 mi
7:00 AM66 °FSunny.20 mph32%30.09 "Hg10 mi
6:00 AM66 °FSunny.18 mph32%30.09 "Hg10 mi
5:00 AM66 °FClear.18 mph30%30.07 "Hg10 mi
4:00 AM66 °FClear.16 mph30%30.07 "Hg10 mi
3:00 AM68 °FClear.22 mph26%30.04 "Hg10 mi
2:00 AM68 °FPassing clouds.18 mph26%30.04 "HgN/A
1:00 AM70 °FPassing clouds.22 mph25%30.04 "Hg4 mi
12:00 AM73 °FPassing clouds.22 mph20%30.04 "Hg4 mi
11:00 PM
Fri, Apr 24
73 °FPassing clouds.21 mph22%30.04 "Hg4 mi
10:00 PM75 °FPassing clouds.21 mph19%30.04 "Hg4 mi
9:00 PM77 °FPassing clouds.22 mph18%30.01 "Hg4 mi
8:00 PM79 °FPassing clouds.22 mph16%29.98 "Hg4 mi
7:00 PM79 °FPassing clouds.20 mph18%29.95 "Hg3 mi
6:00 PM81 °FScattered clouds.24 mph17%29.92 "Hg2 mi
5:00 PM82 °FLow level haze.24 mph17%29.89 "Hg2 mi
4:00 PM84 °FLow level haze.25 mph18%29.89 "Hg1 mi
Weather by CustomWeather, © 2015

See weather overviewHow to use our weather pages